ELECTRON KICK STAGE R/B, 59590

Orbit data source: Space-Track

ELECTRON KICK STAGE R/B, 59590 is space debris in SSO originally from a launch on Tue, 23 Apr 2024 UTC launched from the Rocket Lab Launch Complex (RLLC). Debris objects in space refer to the collection of defunct objects orbiting the Earth. Examples of debris include non-operational satellites, rocket bodies, and fragments generated from explosions, collisions, or faulty payload assembly.

Loading next visibility...
Identifier
59590, 2024-077D
Orbit
SSO
Last TLE update
15 hours ago
Origin
Manufacturer
Rocket Lab
Mission
Spacecraft
Bus & Motor
KICK STAGE, CURIE
Mass
~50 kg wet, ~50 kg dry
Launch date (UTC)
2024-04-23 (1 year ago)
Launch vehicle
Unknown
Launch site
Rocket Lab Launch Complex (RLLC)
Object type
Payload
Rocket body
Debris
Shape & HBR
Unknown
Radar Cross Section
Medium (>0.1 m² and <1 m²)

Expand to show TLE details & history

TLE from 15 hours ago
0 ELECTRON KICK STAGE R/B
1 59590U 24077D   25128.68544714  .00006651  00000-0  65321-3 0  9993
2 59590  97.3452 169.5214 0362137  91.1474 273.1231 14.54002470 55035
Epoch: 2025-05-08T16:27Z
Definitive object data (Epoch: 2025-05-08T16:27:02.632Z)
Latitude
0.00002°
Longitude
56.00804°
Altitude
710.914 km
Speed
7.503 km/s
True Right ascension
11h 18m 05s
True Declination
0° 00' 00"
Sunlit
Object was in full shadow at TLE epoch
Visualization TLE readout
Latitude
-40.72467°
Longitude
62.8841°
Altitude
887.999 km
Speed
7.323 km/s
Apparent Right ascension
07h 58m 09s
Apparent Declination
-62° 06' 16"
Sunlit
Object is in full shadow
Visualization observer readout
Local Sidereal Time
15:16:19
Azimuth
217.364° SW
Elevation
-43.403°
Doppler factor
1
Orbital elements
Apogee altitude
966.327 km
Perigee altitude
452.977 km
Semi-major axis
7,087.789 km
Eccentricity
0.0362137
Inclination
97.3452°
RAAN
169.5214°
Arg. of periapsis
91.1474°
True anomaly
268.97287°
Mean anomaly
273.1231°
Eccentric anomaly
271.04856°
Mean motion
3.63728 °/min
BSTAR
0.00065321
Orbital period
98.98 mins
Loading maneuver chart data...
Loading SW <> Apogee altitude chart data...
Loading historical data...
Loading historical data...
Loading historical data...
Loading historical data...
Loading historical data...
Loading historical data...
Loading historical data...
Other satellites on launch #77 in the year 2024 (2024-04-23 UTC)

ELECTRON KICK STAGE R/B Visibility forecast

Observer location: undefined°, undefined°

Span
Click to sort rows by Start time (UTC) header in descending order
Start Az.
Max El. time (UTC)
Max El. Az.
Max El.
End time (UTC)
End Az.
4 mins2025-05-09 14:30:22.630Z63.288° ENE2025-05-09 14:32:22.630Z97.176° ESE14.703°2025-05-09 14:34:22.630Z128.289° SE
5 mins2025-05-09 16:08:22.630Z337.439° NNW2025-05-09 16:10:22.630Z286.504° WNW28.341°2025-05-09 16:13:22.630Z226.987° WSW
5 mins2025-05-10 03:16:22.630Z209.012° SW2025-05-10 03:18:22.630Z257.657° W29.029°2025-05-10 03:21:22.630Z324.392° NNW
|